DW5301 Weather Reports


time (UTC)temp
C
wind
direction
speed
KPH
gust
KPH
rain 1hr
cm
rain 24hr
cm
rain mn
cm
humidity
%
barometer
mb
20190420021008 12 26 0.0 3.2 0.00 0.00 0.00 63 1028.9
20190420014006 13 26 0.0 1.6 0.00 0.00 0.00 61 1028.8
20190420013007 13 26 0.0 4.8 0.00 0.00 0.00 60 1028.6
20190420011007 13 28 0.0 1.6 0.00 0.00 0.00 59 1028.5
20190420010009 13 28 0.0 1.6 0.00 0.00 0.00 58 1028.6
20190420005007 13 28 0.0 1.6 0.00 0.00 0.00 57 1028.6
20190420004007 14 28 0.0 1.6 0.00 0.00 0.00 57 1028.6
20190420003007 14 28 0.0 3.2 0.00 0.00 0.00 57 1028.6
20190420002007 14 28 1.6 3.2 0.00 0.00 0.00 56 1028.7
20190419233008 15 29 1.6 3.2 0.00 0.00 0.00 56 1028.9
20190419232009 15 29 0.0 3.2 0.00 0.00 0.00 55 1028.9
20190419231008 15 29 0.0 3.2 0.00 0.00 0.00 55 1028.8
20190419230006 15 29 1.6 3.2 0.00 0.00 0.00 55 1028.9
20190419225009 15 28 0.0 3.2 0.00 0.00 0.00 55 1028.9
20190419224012 15 28 1.6 4.8 0.00 0.00 0.00 54 1029.0
20190419223012 16 29 1.6 3.2 0.00 0.00 0.00 54 1029.0
20190419222012 16 29 1.6 4.8 0.00 0.00 0.00 54 1029.0
20190419214007 16 29 1.6 3.2 0.00 0.00 0.00 52 1028.9
20190419212010 17 29 0.0 4.8 0.00 0.00 0.00 50 1028.8
20190419211014 17 29 1.6 4.8 0.00 0.00 0.00 50 1028.7
20190419210013 17 29 1.6 4.8 0.00 0.00 0.00 49 1028.7
20190419205008 18 29 1.6 4.8 0.00 0.00 0.00 49 1028.7
20190419204009 18 29 0.0 3.2 0.00 0.00 0.00 48 1028.6
20190419200009 19 43 1.6 4.8 0.00 0.00 0.00 45 1028.4
20190419195010 19 44 1.6 4.8 0.00 0.00 0.00 45 1028.4
20190419194007 20 40 1.6 4.8 0.00 0.00 0.00 44 1028.3
20190419193010 20 43 1.6 8.0 0.00 0.00 0.00 43 1028.3
20190419192007 20 40 1.6 4.8 0.00 0.00 0.00 43 1028.2
20190419185009 21 40 3.2 4.8 0.00 0.00 0.00 41 1027.8
20190419183011 22 44 3.2 4.8 0.00 0.00 0.00 39 1027.6
20190419182013 22 26 3.2 16.1 0.00 0.00 0.00 37 1027.5
20190419181010 22 44 3.2 8.0 0.00 0.00 0.00 37 1027.3
20190419175009 23 40 3.2 11.3 0.00 0.00 0.00 36 1027.2
20190419173009 23 52 3.2 9.7 0.00 0.00 0.00 34 1027.1
20190419171009 25 68 1.6 8.0 0.00 0.00 0.00 30 1026.9
20190419164008 26 130 3.2 11.3 0.00 0.00 0.00 26 1026.9
20190419163008 26 91 3.2 12.9 0.00 0.00 0.00 26 1026.9
20190419161012 26 136 1.6 12.9 0.00 0.00 0.00 27 1026.8
20190419154009 27 44 1.6 9.7 0.00 0.00 0.00 27 1026.8
20190419153009 27 92 4.8 16.1 0.00 0.00 0.00 27 1026.9
20190419152009 27 83 1.6 12.9 0.00 0.00 0.00 27 1026.9
20190419150008 26 93 4.8 12.9 0.00 0.00 0.00 27 1026.9
20190419140007 27 82 4.8 14.5 0.00 0.00 0.00 28 1027.2
20190419135009 27 21 3.2 14.5 0.00 0.00 0.00 28 1027.2
20190419134009 27 94 4.8 16.1 0.00 0.00 0.00 28 1027.2
20190419132008 27 129 8.0 16.1 0.00 0.00 0.00 27 1027.3
20190419130007 26 203 3.2 14.5 0.00 0.00 0.00 29 1027.4
20190419124008 26 19 4.8 19.3 0.00 0.00 0.00 30 1027.5
20190419121009 26 45 3.2 14.5 0.00 0.00 0.00 32 1027.6
20190419115006 25 82 4.8 11.3 0.00 0.00 0.00 34 1027.7
20190419111009 24 29 4.8 16.1 0.00 0.00 0.00 37 1027.8
20190419104011 23 43 4.8 14.5 0.00 0.00 0.00 39 1027.9
20190419100009 22 133 3.2 11.3 0.00 0.00 0.00 43 1028.1
20190419094007 21 43 1.6 11.3 0.00 0.00 0.00 45 1028.2
20190419093008 21 22 4.8 9.7 0.00 0.00 0.00 44 1028.2
20190419092011 21 149 3.2 9.7 0.00 0.00 0.00 45 1028.2
20190419085009 19 35 1.6 4.8 0.00 0.00 0.00 48 1028.2
20190419084008 18 68 1.6 8.0 0.00 0.00 0.00 50 1028.2
20190419083010 18 27 1.6 8.0 0.00 0.00 0.00 51 1028.3
20190419082009 17 83 1.6 8.0 0.00 0.00 0.00 52 1028.2
20190419081009 17 20 3.2 4.8 0.00 0.00 0.00 53 1028.2
20190419080010 16 352 1.6 4.8 0.00 0.00 0.00 54 1028.1
20190419073008 14 117 3.2 9.7 0.00 0.00 0.00 58 1028.1
20190419071008 13 112 3.2 11.3 0.00 0.00 0.00 60 1027.9
20190419070008 12 359 1.6 4.8 0.00 0.00 0.00 62 1028.0
20190419065008 12 92 1.6 4.8 0.00 0.00 0.00 63 1027.8
20190419064007 11 255 1.6 8.0 0.00 0.00 0.00 65 1027.8
20190419063007 11 45 1.6 8.0 0.00 0.00 0.00 66 1027.8
20190419062009 11 47 1.6 8.0 0.00 0.00 0.00 66 1027.7
20190419061008 10 65 1.6 11.3 0.00 0.00 0.00 67 1027.6
20190419060009 10 23 1.6 4.8 0.00 0.00 0.00 67 1027.5
20190419055007 10 34 0.0 4.8 0.00 0.00 0.00 67 1027.5
20190419054011 10 34 1.6 4.8 0.00 0.00 0.00 67 1027.5
20190419053007 10 34 0.0 4.8 0.00 0.00 0.00 67 1027.4
20190419043009 10 82 0.0 4.8 0.00 0.00 0.00 67 1026.9
20190419042011 10 82 0.0 0.0 0.00 0.00 0.00 66 1026.9
20190419041007 10 82 0.0 0.0 0.00 0.00 0.00 66 1026.9
20190419040008 10 82 0.0 0.0 0.00 0.00 0.00 66 1026.9
20190419034009 11 82 0.0 0.0 0.00 0.00 0.00 64 1026.7
20190419032007 11 82 0.0 0.0 0.00 0.00 0.00 64 1026.6
20190419031007 11 82 0.0 0.0 0.00 0.00 0.00 63 1026.5
20190419030009 11 82 0.0 0.0 0.00 0.00 0.00 62 1026.5
20190419023008 12 82 0.0 0.0 0.00 0.00 0.00 61 1026.5